User: anonymous   Login
Location: Unspecified
(0.0000°N, 0.0000°E)
Time: 03:40:37
(UTC+00:00)
Language:

OBJECT M - Orbit

View from above orbital plane
View from above orbital plane
View from above satellite
View from above satellite

Ground track
Ground track

The orbit data is extracted from the following two-line orbital elements,

1 42836U 17042M   17265.87369373  .00000233  00000-0  29059-4 0  9991
2 42836  97.6080 173.0632 0013880  17.8094 342.3608 14.90904827 10513
Epoch (UTC): 22 September 2017 20:58:07
Eccentricity: 0.0013880
inclination: 97.6080°
perigee height: 585 km
apogee height: 605 km
right ascension of ascending node: 173.0632°
argument of perigee: 17.8094°
revolutions per day: 14.90904827
mean anomaly at epoch: 342.3608°
orbit number at epoch: 1051

The dashed part of the orbit path shows where the satellite is in the earth's shadow,  

DLR